timestamp,surface_pressure_avg,surface_temp_avg,battery_voltage,lat,long
2019-04-12 00:00:00+00:00,266.2147,1.2,13.13,47.84626,-54.09684
2019-04-12 00:10:00+00:00,268.2381,1.2,12.97,47.84626,-54.09684
2019-04-12 00:20:00+00:00,269.6097,1.2,12.97,47.84626,-54.09684
2019-04-12 00:30:00+00:00,274.0264,1.2,12.97,47.84626,-54.09684
2019-04-12 00:40:00+00:00,279.8731,1.3,12.97,47.84626,-54.09684
2019-04-12 00:50:00+00:00,285.4747,1.2,12.97,47.84626,-54.09684
2019-04-12 01:00:00+00:00,289.0081,1.2,12.89,47.84626,-54.09684
2019-04-12 01:10:00+00:00,295.1464,1.2,12.81,47.84626,-54.09684
2019-04-12 01:20:00+00:00,298.8563,1.23,12.89,47.84626,-54.09684
2019-04-12 01:30:00+00:00,303.0062,1.28,12.97,47.84626,-54.09684
2019-04-12 01:40:00+00:00,309.7731,1.28,12.97,47.84626,-54.09684
2019-04-12 01:50:00+00:00,314.503,1.27,12.97,47.84626,-54.09684
2019-04-12 02:00:00+00:00,317.2363,1.29,12.89,47.84626,-54.09684
2019-04-12 02:10:00+00:00,321.8646,1.3,12.81,47.84626,-54.09684
2019-04-12 02:20:00+00:00,330.568,1.29,12.89,47.84626,-54.09684
2019-04-12 02:30:00+00:00,336.3796,1.27,12.89,47.84626,-54.09684
2019-04-12 02:40:00+00:00,340.193,1.28,12.89,47.84626,-54.09684
2019-04-12 02:50:00+00:00,345.9214,1.26,12.97,47.84626,-54.09684
2019-04-12 03:00:00+00:00,349.2329,1.22,12.89,47.84626,-54.09684
2019-04-12 03:10:00+00:00,349.658,1.22,12.81,47.84626,-54.09684
2019-04-12 03:20:00+00:00,352.9596,1.2,12.89,47.84626,-54.09684
2019-04-12 03:30:00+00:00,357.6212,1.2,12.89,47.84626,-54.09684
2019-04-12 03:40:00+00:00,357.3846,1.2,12.89,47.84626,-54.09684
2019-04-12 03:50:00+00:00,357.3129,1.2,12.89,47.84626,-54.09684
2019-04-12 04:00:00+00:00,359.9246,1.2,12.81,47.84626,-54.09684
2019-04-12 04:10:00+00:00,359.9062,1.2,12.73,47.84626,-54.09684
2019-04-12 04:20:00+00:00,358.3613,1.2,12.81,47.84626,-54.09684
2019-04-12 04:30:00+00:00,361.4263,1.2,12.89,47.84626,-54.09684
2019-04-12 04:40:00+00:00,361.658,1.2,12.89,47.84626,-54.09684
2019-04-12 04:50:00+00:00,358.303,1.2,12.89,47.84626,-54.09684
2019-04-12 05:00:00+00:00,358.4313,1.2,12.81,47.84626,-54.09684
2019-04-12 05:10:00+00:00,358.413,1.17,12.73,47.84626,-54.09684
2019-04-12 05:20:00+00:00,356.4547,1.1,12.81,47.84626,-54.09684
2019-04-12 05:30:00+00:00,352.8029,1.1,12.81,47.84626,-54.09684
2019-04-12 05:40:00+00:00,352.848,1.1,12.89,47.84626,-54.09684
2019-04-12 05:50:00+00:00,350.5996,1.1,12.89,47.84626,-54.09684
2019-04-12 06:00:00+00:00,342.9279,1.07,12.81,47.84626,-54.09684
2019-04-12 06:10:00+00:00,337.6164,1.06,12.73,47.84626,-54.09684
2019-04-12 06:20:00+00:00,334.2697,1.0,12.81,47.84626,-54.09684
2019-04-12 06:30:00+00:00,329.428,1.0,12.81,47.84626,-54.09684
2019-04-12 06:40:00+00:00,326.1163,0.99,12.81,47.84626,-54.09684
2019-04-12 06:50:00+00:00,324.2947,0.98,12.81,47.84626,-54.09684
2019-04-12 07:00:00+00:00,315.9597,1.0,12.73,47.84626,-54.09684
2019-04-12 07:10:00+00:00,305.7914,1.1,12.65,47.84626,-54.09684
2019-04-12 07:20:00+00:00,300.923,1.1,12.73,47.84626,-54.09684
2019-04-12 07:30:00+00:00,295.728,1.04,12.73,47.84626,-54.09684
2019-04-12 07:40:00+00:00,284.943,1.0,12.81,47.84626,-54.09684
2019-04-12 07:50:00+00:00,276.1647,0.84,12.81,47.84626,-54.09684
2019-04-12 08:00:00+00:00,271.7215,1.0,12.73,47.84626,-54.09684
2019-04-12 08:10:00+00:00,266.3497,1.0,12.65,47.84626,-54.09684
2019-04-12 08:20:00+00:00,258.2481,1.0,12.73,47.84626,-54.09684
2019-04-12 08:30:00+00:00,254.3997,0.97,12.73,47.84626,-54.09684
2019-04-12 08:40:00+00:00,248.0314,0.99,12.81,47.84626,-54.09684
2019-04-12 08:50:00+00:00,241.5764,1.0,12.81,47.84626,-54.09684
2019-04-12 09:00:00+00:00,235.6331,1.0,12.73,47.84626,-54.09684
2019-04-12 09:10:00+00:00,232.5331,1.0,12.65,47.84626,-54.09684
2019-04-12 09:20:00+00:00,228.3297,1.0,12.73,47.84626,-54.09684
2019-04-12 09:30:00+00:00,227.0631,1.0,12.73,47.84626,-54.09684
2019-04-12 09:40:00+00:00,226.9381,1.0,12.81,47.84626,-54.09684
2019-04-12 09:50:00+00:00,228.7098,0.96,12.97,47.84626,-54.09684
2019-04-12 10:00:00+00:00,230.6831,0.93,13.37,47.84626,-54.09684
2019-04-12 10:10:00+00:00,231.6381,0.95,13.76,47.84626,-54.09684
2019-04-12 10:20:00+00:00,232.7314,0.98,14.24,47.84626,-54.09684
2019-04-12 10:30:00+00:00,234.3565,0.99,14.56,47.84626,-54.09684
2019-04-12 10:40:00+00:00,238.2431,1.0,14.8,47.84626,-54.09684
2019-04-12 10:50:00+00:00,240.2631,1.0,14.96,47.84626,-54.09684
2019-04-12 11:00:00+00:00,240.7631,0.99,14.88,47.84626,-54.09684
2019-04-12 11:10:00+00:00,237.578,0.92,14.88,47.84626,-54.09684
2019-04-12 11:20:00+00:00,237.288,0.9,14.96,47.84626,-54.09684
2019-04-12 11:30:00+00:00,241.5147,0.9,14.96,47.84626,-54.09684
2019-04-12 11:40:00+00:00,243.5497,0.9,14.96,47.84626,-54.09684
2019-04-12 11:50:00+00:00,242.7548,0.9,15.04,47.84626,-54.09684
2019-04-12 12:00:00+00:00,243.0248,0.95,14.72,47.84626,-54.09684
2019-04-12 12:10:00+00:00,247.2698,0.99,14.96,47.84626,-54.09684
2019-04-12 12:20:00+00:00,246.7547,1.0,14.96,47.84626,-54.09684
2019-04-12 12:30:00+00:00,249.578,1.0,14.96,47.84626,-54.09684
2019-04-12 12:40:00+00:00,253.343,1.0,14.96,47.84626,-54.09684
2019-04-12 12:50:00+00:00,259.5164,1.0,14.96,47.84626,-54.09684
2019-04-12 13:00:00+00:00,260.2114,0.99,14.88,47.84626,-54.09684
2019-04-12 13:10:00+00:00,262.5297,0.9,14.8,47.84626,-54.09684
2019-04-12 13:20:00+00:00,265.8514,0.8,14.8,47.84626,-54.09684
2019-04-12 13:30:00+00:00,272.0981,0.79,14.72,47.84626,-54.09684
2019-04-12 13:40:00+00:00,274.9798,0.8,14.88,47.84626,-54.09684
2019-04-12 13:50:00+00:00,279.5964,1.02,14.88,47.84626,-54.09684
2019-04-12 14:00:00+00:00,285.4064,0.55,14.72,47.84626,-54.09684
2019-04-12 14:10:00+00:00,290.7847,0.59,14.8,47.84626,-54.09684
2019-04-12 14:20:00+00:00,293.2764,0.6,14.88,47.84626,-54.09684
2019-04-12 14:30:00+00:00,296.6597,0.6,14.8,47.84626,-54.09684
2019-04-12 14:40:00+00:00,299.5129,0.61,14.88,47.84626,-54.09684
2019-04-12 14:50:00+00:00,301.4363,0.69,14.72,47.84626,-54.09684
2019-04-12 15:00:00+00:00,305.0046,0.7,14.72,47.84626,-54.09684
2019-04-12 15:10:00+00:00,308.258,0.7,14.72,47.84626,-54.09684
2019-04-12 15:20:00+00:00,308.423,0.69,14.8,47.84626,-54.09684
2019-04-12 15:30:00+00:00,311.1364,0.6,14.8,47.84626,-54.09684
2019-04-12 15:40:00+00:00,315.903,0.6,14.72,47.84626,-54.09684
2019-04-12 15:50:00+00:00,318.1496,0.57,14.72,47.84626,-54.09684
2019-04-12 16:00:00+00:00,316.0097,0.57,14.64,47.84626,-54.09684
2019-04-12 16:10:00+00:00,317.4681,0.53,14.64,47.84626,-54.09684
2019-04-12 16:20:00+00:00,322.6647,0.5,14.72,47.84626,-54.09684
2019-04-12 16:30:00+00:00,325.1963,0.55,14.64,47.84626,-54.09684
2019-04-12 16:40:00+00:00,324.8112,0.57,14.64,47.84626,-54.09684
2019-04-12 16:50:00+00:00,326.5797,0.58,14.64,47.84626,-54.09684
2019-04-12 17:00:00+00:00,327.4847,0.58,14.56,47.84626,-54.09684
2019-04-12 17:10:00+00:00,324.633,0.59,14.48,47.84626,-54.09684
2019-04-12 17:20:00+00:00,321.613,0.6,14.56,47.84626,-54.09684
2019-04-12 17:30:00+00:00,323.2596,0.64,14.56,47.84626,-54.09684
2019-04-12 17:40:00+00:00,323.598,0.62,14.56,47.84626,-54.09684
2019-04-12 17:50:00+00:00,320.783,0.67,14.56,47.84626,-54.09684
2019-04-12 18:00:00+00:00,318.8447,0.76,14.4,47.84626,-54.09684
2019-04-12 18:10:00+00:00,318.0797,0.9,14.32,47.84626,-54.09684
2019-04-12 18:20:00+00:00,315.8464,1.03,14.4,47.84626,-54.09684
2019-04-12 18:30:00+00:00,309.7813,1.21,14.32,47.84626,-54.09684
2019-04-12 18:40:00+00:00,304.233,1.42,14.32,47.84626,-54.09684
2019-04-12 18:50:00+00:00,299.8564,1.48,14.32,47.84626,-54.09684
2019-04-12 19:00:00+00:00,294.9514,1.46,14.16,47.84626,-54.09684
2019-04-12 19:10:00+00:00,289.048,1.5,14.0,47.84626,-54.09684
2019-04-12 19:20:00+00:00,284.4431,1.19,14.08,47.84626,-54.09684
2019-04-12 19:30:00+00:00,279.6014,0.9,14.08,47.84626,-54.09684
2019-04-12 19:40:00+00:00,274.4581,1.43,14.08,47.84626,-54.09684
2019-04-12 19:50:00+00:00,270.8614,1.4,14.08,47.84626,-54.09684
2019-04-12 20:00:00+00:00,264.9464,1.3,14.0,47.84626,-54.09684
2019-04-12 20:10:00+00:00,257.1731,1.0,13.92,47.84626,-54.09684
2019-04-12 20:20:00+00:00,251.8081,0.9,14.0,47.84626,-54.09684
2019-04-12 20:30:00+00:00,248.1364,0.93,14.0,47.84626,-54.09684
2019-04-12 20:40:00+00:00,243.2797,1.2,14.0,47.84626,-54.09684
2019-04-12 20:50:00+00:00,236.4048,1.1,14.0,47.84626,-54.09684
2019-04-12 21:00:00+00:00,231.5348,0.89,13.92,47.84626,-54.09684
2019-04-12 21:10:00+00:00,226.2348,0.6,13.76,47.84626,-54.09684
2019-04-12 21:20:00+00:00,221.2997,0.6,13.84,47.84626,-54.09684
2019-04-12 21:30:00+00:00,221.3998,0.6,13.76,47.84626,-54.09684
2019-04-12 21:40:00+00:00,221.7264,0.64,13.76,47.84626,-54.09684
2019-04-12 21:50:00+00:00,218.2764,0.68,13.76,47.84626,-54.09684
2019-04-12 22:00:00+00:00,219.0498,0.6,13.6,47.84626,-54.09684
2019-04-12 22:10:00+00:00,224.0414,0.54,13.44,47.84626,-54.09684
2019-04-12 22:20:00+00:00,223.0198,0.68,13.44,47.84626,-54.09684
2019-04-12 22:30:00+00:00,219.6514,0.6,13.37,47.84626,-54.09684
2019-04-12 22:40:00+00:00,223.2681,0.6,13.37,47.84626,-54.09684
2019-04-12 22:50:00+00:00,227.0931,0.61,13.37,47.84626,-54.09684
2019-04-12 23:00:00+00:00,226.638,0.6,13.29,47.84626,-54.09684
2019-04-12 23:10:00+00:00,226.2831,0.69,13.13,47.84626,-54.09684
2019-04-12 23:20:00+00:00,232.0564,0.7,13.13,47.84626,-54.09684
2019-04-12 23:30:00+00:00,235.6714,0.7,13.05,47.84626,-54.09684
2019-04-12 23:40:00+00:00,234.4298,0.65,13.05,47.84626,-54.09684
2019-04-12 23:50:00+00:00,236.6614,0.67,13.05,47.84626,-54.09684
